Location: Linz
(48.3300°N, 14.3000°E)
Time: 20:24:21
(UTC+01:00)

Envisat - Pass Details

Date: 11 November 2017
Orbit: 764 x 766 km, 98.2° (Epoch: 21 November)

Event Time Altitude Azimuth Distance (km) Brightness Sun altitude
Exits shadow 19:45:34 21° 345° (NNW) 1,665 4.9 -32.7°
Drops below altitude 10° 19:47:14 10° 346° (NNW) 2,313 5.7 -32.9°
Sets 19:49:33 0° 346° (NNW) 3,244 6.5 -33.3°
